Tracking 19170 objects as of 23-May-2018
HD Live streaming from Space Station
objects crossing your sky now

NATO 3A

Track NATO 3A now!
NATO 3A is classified as:


NORAD ID: 8808
Int'l Code: 1976-035A
Perigee: 35,817.9 km
Apogee: 36,009.6 km
Inclination: 11.2 °
Period: 1,442.2 minutes
Semi major axis: 42284 km
RCS: 7.2313 m2 (large)
Launch date: April 22, 1976
Source: North Atlantic Treaty Organization (NATO)
Launch site: AIR FORCE EASTERN TEST RANGE (AFETR)
aabbcc
Your satellite tracking list
Your tracking list is empty




NASA's NSSDC Master Catalog

Two Line Element Set (TLE):
1  8808U 76035A   18142.83452260 -.00000310 +00000-0 +00000-0 0  9996
2  8808 011.2154 323.0791 0022674 252.8763 271.5814 00.99845205717846
Source of the keplerian elements: AFSPC